This is the latest recevied weather packets stored in our database for station/object W3AJR. If no packets are shown the sender has not sent any weather packets the latest 10 day(s).
| Time | Temp. | Humidity | Pressure | Rain* | Wind** | Luminosity | Snow |
|---|---|---|---|---|---|---|---|
| 1778158384 | 12.22° C | 81% | 1012.6 hPa | 0 mm | - | 48 W/m² | - |
| 1778158081 | 12.22° C | 81% | 1012.6 hPa | 0 mm | - | 52 W/m² | - |
| 1778157778 | 12.22° C | 82% | 1012.3 hPa | 0 mm | - | 60 W/m² | - |
| 1778157476 | 12.22° C | 83% | 1012.6 hPa | 0 mm | - | 69 W/m² | - |
| 1778157173 | 12.22° C | 83% | 1012.4 hPa | 0 mm | - | 65 W/m² | - |
| 1778156869 | 12.22° C | 85% | 1012.1 hPa | 0 mm | - | 63 W/m² | - |
| 1778156564 | 12.22° C | 86% | 1011.9 hPa | 0 mm | - | 69 W/m² | - |
| 1778156261 | 12.22° C | 86% | 1012.2 hPa | 0 mm | - | 64 W/m² | - |
| 1778155956 | 12.22° C | 86% | 1011.9 hPa | 0 mm | - | 66 W/m² | - |
| 1778155653 | 12.22° C | 87% | 1011.9 hPa | 0 mm | - | 54 W/m² | - |
| 1778155350 | 12.22° C | 88% | 1012.1 hPa | 0 mm | - | 51 W/m² | - |
| 1778155046 | 12.22° C | 89% | 1011.9 hPa | 0 mm | - | 62 W/m² | - |
| 1778154742 | 12.22° C | 90% | 1012.1 hPa | 0 mm | - | 61 W/m² | - |
| 1778154438 | 12.22° C | 90% | 1011.8 hPa | 0 mm | - | 65 W/m² | - |
| 1778154135 | 12.22° C | 91% | 1011.8 hPa | 0 mm | - | 61 W/m² | - |
| 1778153833 | 12.22° C | 91% | 1011.4 hPa | 0 mm | - | 84 W/m² | - |
| 1778153529 | 12.22° C | 92% | 1011.6 hPa | 0 mm | - | 75 W/m² | - |
| 1778153227 | 11.67° C | 92% | 1011.9 hPa | 0 mm | - | 54 W/m² | - |
| 1778152924 | 11.67° C | 93% | 1011.7 hPa | 0 mm | - | 35 W/m² | - |
| 1778152621 | 11.67° C | 93% | 1011.5 hPa | 0 mm | - | 26 W/m² | - |
| 1778152318 | 11.67° C | 94% | 1011.6 hPa | 0 mm | - | 22 W/m² | - |
| 1778152014 | 11.67° C | 94% | 1011.5 hPa | 0 mm | - | 33 W/m² | - |
| 1778151711 | 11.67° C | 94% | 1011.6 hPa | 0 mm | - | 27 W/m² | - |
| 1778151408 | 11.67° C | 94% | 1011.6 hPa | 0 mm | - | 10 W/m² | - |
| 1778151103 | 11.67° C | 94% | 1011.4 hPa | 0 mm | - | 8 W/m² | - |
* Rain latest hour (hover to see other rain measurements)
** Current wind speed in m/s (hover to see current wind gust speed)